Year,Month,Day,Hour,Minute,Value (Times are PST for temperature in C)
2011,08,20,00,00,12.90
2011,08,20,00,01,12.90
2011,08,20,00,02,12.90
2011,08,20,00,03,12.90
2011,08,20,00,04,12.90
2011,08,20,00,05,12.90
2011,08,20,00,06,12.90
2011,08,20,00,07,12.80
2011,08,20,00,08,12.80
2011,08,20,00,09,12.80
2011,08,20,00,10,12.80
2011,08,20,00,11,12.80
2011,08,20,00,12,12.70
2011,08,20,00,13,12.70
2011,08,20,00,14,12.70
2011,08,20,00,15,12.70
2011,08,20,00,16,12.60
2011,08,20,00,17,12.60
2011,08,20,00,18,12.60
2011,08,20,00,19,12.60
2011,08,20,00,20,12.60
2011,08,20,00,21,12.50
2011,08,20,00,22,12.50
2011,08,20,00,23,12.50
2011,08,20,00,24,12.40
2011,08,20,00,25,12.40
2011,08,20,00,26,12.40
2011,08,20,00,27,12.40
2011,08,20,00,28,12.40
2011,08,20,00,29,12.30
2011,08,20,00,30,12.30
2011,08,20,00,31,12.30
2011,08,20,00,32,12.30
2011,08,20,00,33,12.30
2011,08,20,00,34,12.30
2011,08,20,00,35,12.30
2011,08,20,00,36,12.30
2011,08,20,00,37,12.30
2011,08,20,00,38,12.20
2011,08,20,00,39,12.20
2011,08,20,00,40,12.20
2011,08,20,00,41,12.20
2011,08,20,00,42,12.20
2011,08,20,00,43,12.20
2011,08,20,00,44,12.10
2011,08,20,00,45,12.10
2011,08,20,00,46,12.10
2011,08,20,00,47,12.10
2011,08,20,00,48,12.10
2011,08,20,00,49,12.10
2011,08,20,00,50,12.10
2011,08,20,00,51,12.10
2011,08,20,00,52,12.10
2011,08,20,00,53,12.00
2011,08,20,00,54,12.00
2011,08,20,00,55,12.00
2011,08,20,00,56,12.00
2011,08,20,00,57,11.90
2011,08,20,00,58,11.90
2011,08,20,00,59,11.90
2011,08,20,01,00,11.90
2011,08,20,01,01,11.90
2011,08,20,01,02,11.90
2011,08,20,01,03,11.90
2011,08,20,01,04,11.90
2011,08,20,01,05,11.90
2011,08,20,01,06,11.90
2011,08,20,01,07,11.90
2011,08,20,01,08,11.90
2011,08,20,01,09,11.90
2011,08,20,01,10,11.80
2011,08,20,01,11,11.80
2011,08,20,01,12,11.80
2011,08,20,01,13,11.80
2011,08,20,01,14,11.80
2011,08,20,01,15,11.80
2011,08,20,01,16,11.80
2011,08,20,01,17,11.80
2011,08,20,01,18,11.80
2011,08,20,01,19,11.80
2011,08,20,01,20,11.80
2011,08,20,01,21,11.80
2011,08,20,01,22,11.80
2011,08,20,01,23,11.80
2011,08,20,01,24,11.80
2011,08,20,01,25,11.80
2011,08,20,01,26,11.80
2011,08,20,01,27,11.80
2011,08,20,01,28,11.80
2011,08,20,01,29,11.80
2011,08,20,01,30,11.80
2011,08,20,01,31,11.80
2011,08,20,01,32,11.80
2011,08,20,01,33,11.80
2011,08,20,01,34,11.80
2011,08,20,01,35,11.80
2011,08,20,01,36,11.80
2011,08,20,01,37,11.70
2011,08,20,01,38,11.70
2011,08,20,01,39,11.70
2011,08,20,01,40,11.70
2011,08,20,01,41,11.70
2011,08,20,01,42,11.70
2011,08,20,01,43,11.70
2011,08,20,01,44,11.70
2011,08,20,01,45,11.60
2011,08,20,01,46,11.60
2011,08,20,01,47,11.60
2011,08,20,01,48,11.60
2011,08,20,01,49,11.60
2011,08,20,01,50,11.60
2011,08,20,01,51,11.60
2011,08,20,01,52,11.50
2011,08,20,01,53,11.50
2011,08,20,01,54,11.50
2011,08,20,01,55,11.40
2011,08,20,01,56,11.40
2011,08,20,01,57,11.40
2011,08,20,01,58,11.40
2011,08,20,01,59,11.40
2011,08,20,02,00,11.30
2011,08,20,02,01,11.30
2011,08,20,02,02,11.30
2011,08,20,02,03,11.30
2011,08,20,02,04,11.30
2011,08,20,02,05,11.30
2011,08,20,02,06,11.30
2011,08,20,02,07,11.30
2011,08,20,02,08,11.30
2011,08,20,02,09,11.30
2011,08,20,02,10,11.30
2011,08,20,02,11,11.30
2011,08,20,02,12,11.20
2011,08,20,02,13,11.20
2011,08,20,02,14,11.20
2011,08,20,02,15,11.20
2011,08,20,02,16,11.20
2011,08,20,02,17,11.10
2011,08,20,02,18,11.10
2011,08,20,02,19,11.10
2011,08,20,02,20,11.10
2011,08,20,02,21,11.10
2011,08,20,02,22,11.10
2011,08,20,02,23,11.10
2011,08,20,02,24,11.10
2011,08,20,02,25,11.10
2011,08,20,02,26,11.10
2011,08,20,02,27,11.00
2011,08,20,02,28,11.00
2011,08,20,02,29,11.00
2011,08,20,02,30,11.00
2011,08,20,02,31,11.00
2011,08,20,02,32,11.00
2011,08,20,02,33,11.00
2011,08,20,02,34,11.00
2011,08,20,02,35,11.00
2011,08,20,02,36,11.00
2011,08,20,02,37,11.00
2011,08,20,02,38,11.00
2011,08,20,02,39,11.00
2011,08,20,02,40,11.00
2011,08,20,02,41,11.00
2011,08,20,02,42,11.00
2011,08,20,02,43,11.00
2011,08,20,02,44,10.90
2011,08,20,02,45,10.90
2011,08,20,02,46,10.90
2011,08,20,02,47,10.90
2011,08,20,02,48,10.90
2011,08,20,02,49,10.90
2011,08,20,02,50,10.90
2011,08,20,02,51,10.90
2011,08,20,02,52,10.80
2011,08,20,02,53,10.80
2011,08,20,02,54,10.80
2011,08,20,02,55,10.80
2011,08,20,02,56,10.80
2011,08,20,02,57,10.80
2011,08,20,02,58,10.80
2011,08,20,02,59,10.80
2011,08,20,03,00,10.80
2011,08,20,03,01,10.80
2011,08,20,03,02,10.80
2011,08,20,03,03,10.80
2011,08,20,03,04,10.80
2011,08,20,03,05,10.80
2011,08,20,03,06,10.80
2011,08,20,03,07,10.80
2011,08,20,03,08,10.80
2011,08,20,03,09,10.80
2011,08,20,03,10,10.70
2011,08,20,03,11,10.70
2011,08,20,03,12,10.70
2011,08,20,03,13,10.70
2011,08,20,03,14,10.70
2011,08,20,03,15,10.70
2011,08,20,03,16,10.60
2011,08,20,03,17,10.60
2011,08,20,03,18,10.60
2011,08,20,03,19,10.60
2011,08,20,03,20,10.60
2011,08,20,03,21,10.60
2011,08,20,03,22,10.60
2011,08,20,03,23,10.60
2011,08,20,03,24,10.60
2011,08,20,03,25,10.60
2011,08,20,03,26,10.60
2011,08,20,03,27,10.60
2011,08,20,03,28,10.60
2011,08,20,03,29,10.60
2011,08,20,03,30,10.60
2011,08,20,03,31,10.60
2011,08,20,03,32,10.60
2011,08,20,03,33,10.50
2011,08,20,03,34,10.50
2011,08,20,03,35,10.50
2011,08,20,03,36,10.50
2011,08,20,03,37,10.50
2011,08,20,03,38,10.50
2011,08,20,03,39,10.50
2011,08,20,03,40,10.50
2011,08,20,03,41,10.50
2011,08,20,03,42,10.50
2011,08,20,03,43,10.50
2011,08,20,03,44,10.60
2011,08,20,03,45,10.60
2011,08,20,03,46,10.60
2011,08,20,03,47,10.60
2011,08,20,03,48,10.50
2011,08,20,03,49,10.50
2011,08,20,03,50,10.50
2011,08,20,03,51,10.40
2011,08,20,03,52,10.40
2011,08,20,03,53,10.40
2011,08,20,03,54,10.40
2011,08,20,03,55,10.40
2011,08,20,03,56,10.30
2011,08,20,03,57,10.30
2011,08,20,03,58,10.30
2011,08,20,03,59,10.30
2011,08,20,04,00,10.30
2011,08,20,04,01,10.30
2011,08,20,04,02,10.30
2011,08,20,04,03,10.30
2011,08,20,04,04,10.30
2011,08,20,04,05,10.30
2011,08,20,04,06,10.30
2011,08,20,04,07,10.30
2011,08,20,04,08,10.30
2011,08,20,04,09,10.30
2011,08,20,04,10,10.20
2011,08,20,04,11,10.20
2011,08,20,04,12,10.20
2011,08,20,04,13,10.20
2011,08,20,04,14,10.20
2011,08,20,04,15,10.20
2011,08,20,04,16,10.20
2011,08,20,04,17,10.20
2011,08,20,04,18,10.20
2011,08,20,04,19,10.20
2011,08,20,04,20,10.20
2011,08,20,04,21,10.20
2011,08,20,04,22,10.20
2011,08,20,04,23,10.20
2011,08,20,04,24,10.20
2011,08,20,04,25,10.20
2011,08,20,04,26,10.20
2011,08,20,04,27,10.20
2011,08,20,04,28,10.20
2011,08,20,04,29,10.20
2011,08,20,04,30,10.20
2011,08,20,04,31,10.20
2011,08,20,04,32,10.20
2011,08,20,04,33,10.20
2011,08,20,04,34,10.20
2011,08,20,04,35,10.20
2011,08,20,04,36,10.20
2011,08,20,04,37,10.20
2011,08,20,04,38,10.20
2011,08,20,04,39,10.20
2011,08,20,04,40,10.20
2011,08,20,04,41,10.20
2011,08,20,04,42,10.20
2011,08,20,04,43,10.20
2011,08,20,04,44,10.20
2011,08,20,04,45,10.20
2011,08,20,04,46,10.10
2011,08,20,04,47,10.10
2011,08,20,04,48,10.10
2011,08,20,04,49,10.10
2011,08,20,04,50,10.10
2011,08,20,04,51,10.10
2011,08,20,04,52,10.10
2011,08,20,04,53,10.10
2011,08,20,04,54,10.00
2011,08,20,04,55,10.00
2011,08,20,04,56,10.00
2011,08,20,04,57,10.00
2011,08,20,04,58,9.90
2011,08,20,04,59,9.90
2011,08,20,05,00,9.90
2011,08,20,05,01,9.90
2011,08,20,05,02,9.90
2011,08,20,05,03,9.90
2011,08,20,05,04,9.90
2011,08,20,05,05,9.90
2011,08,20,05,06,9.90
2011,08,20,05,07,10.00
2011,08,20,05,08,10.00
2011,08,20,05,09,10.00
2011,08,20,05,10,10.10
2011,08,20,05,11,10.10
2011,08,20,05,12,10.10
2011,08,20,05,13,10.10
2011,08,20,05,14,10.10
2011,08,20,05,15,10.10
2011,08,20,05,16,10.10
2011,08,20,05,17,10.10
2011,08,20,05,18,10.10
2011,08,20,05,19,10.10
2011,08,20,05,20,10.10
2011,08,20,05,21,10.10
2011,08,20,05,22,10.10
2011,08,20,05,23,10.10
2011,08,20,05,24,10.10
2011,08,20,05,25,10.10
2011,08,20,05,26,10.10
2011,08,20,05,27,10.10
2011,08,20,05,28,10.10
2011,08,20,05,29,10.10
2011,08,20,05,30,10.10
2011,08,20,05,31,10.00
2011,08,20,05,32,10.00
2011,08,20,05,33,10.00
2011,08,20,05,34,10.00
2011,08,20,05,35,9.90
2011,08,20,05,36,9.90
2011,08,20,05,37,9.90
2011,08,20,05,38,9.90
2011,08,20,05,39,9.90
2011,08,20,05,40,9.90
2011,08,20,05,41,9.90
2011,08,20,05,42,9.80
2011,08,20,05,43,9.80
2011,08,20,05,44,9.80
2011,08,20,05,45,9.80
2011,08,20,05,46,9.80
2011,08,20,05,47,9.80
2011,08,20,05,48,9.70
2011,08,20,05,49,9.70
2011,08,20,05,50,9.70
2011,08,20,05,51,9.70
2011,08,20,05,52,9.70
2011,08,20,05,53,9.70
2011,08,20,05,54,9.70
2011,08,20,05,55,9.70
2011,08,20,05,56,9.70
2011,08,20,05,57,9.70
2011,08,20,05,58,9.70
2011,08,20,05,59,9.70
2011,08,20,06,00,9.70
2011,08,20,06,01,9.70
2011,08,20,06,02,9.70
2011,08,20,06,03,9.70
2011,08,20,06,04,9.70
2011,08,20,06,05,9.70
2011,08,20,06,06,9.70
2011,08,20,06,07,9.70
2011,08,20,06,08,9.70
2011,08,20,06,09,9.70
2011,08,20,06,10,9.70
2011,08,20,06,11,9.70
2011,08,20,06,12,9.70
2011,08,20,06,13,9.70
2011,08,20,06,14,9.60
2011,08,20,06,15,9.60
2011,08,20,06,16,9.70
2011,08,20,06,17,9.60
2011,08,20,06,18,9.70
2011,08,20,06,19,9.70
2011,08,20,06,20,9.70
2011,08,20,06,21,9.70
2011,08,20,06,22,9.70
2011,08,20,06,23,9.70
2011,08,20,06,24,9.70
2011,08,20,06,25,9.70
2011,08,20,06,26,9.80
2011,08,20,06,27,9.80
2011,08,20,06,28,9.80
2011,08,20,06,29,9.80
2011,08,20,06,30,9.80
2011,08,20,06,31,9.80
2011,08,20,06,32,9.80
2011,08,20,06,33,9.80
2011,08,20,06,34,9.80
2011,08,20,06,35,9.80
2011,08,20,06,36,9.80
2011,08,20,06,37,9.70
2011,08,20,06,38,9.70
2011,08,20,06,39,9.70
2011,08,20,06,40,9.80
2011,08,20,06,41,9.80
2011,08,20,06,42,9.80
2011,08,20,06,43,9.80
2011,08,20,06,44,9.80
2011,08,20,06,45,9.80
2011,08,20,06,46,9.80
2011,08,20,06,47,9.80
2011,08,20,06,48,9.90
2011,08,20,06,49,9.90
2011,08,20,06,50,10.00
2011,08,20,06,51,10.00
2011,08,20,06,52,10.10
2011,08,20,06,53,10.10
2011,08,20,06,54,10.10
2011,08,20,06,55,10.10
2011,08,20,06,56,10.10
2011,08,20,06,57,10.10
2011,08,20,06,58,10.10
2011,08,20,06,59,10.10
2011,08,20,07,00,10.20
2011,08,20,07,01,10.20
2011,08,20,07,02,10.20
2011,08,20,07,03,10.20
2011,08,20,07,04,10.20
2011,08,20,07,05,10.30
2011,08,20,07,06,10.30
2011,08,20,07,07,10.40
2011,08,20,07,08,10.40
2011,08,20,07,09,10.50
2011,08,20,07,10,10.50
2011,08,20,07,11,10.60
2011,08,20,07,12,10.70
2011,08,20,07,13,10.80
2011,08,20,07,14,10.90
2011,08,20,07,15,11.00
2011,08,20,07,16,11.10
2011,08,20,07,17,11.10
2011,08,20,07,18,11.20
2011,08,20,07,19,11.30
2011,08,20,07,20,11.30
2011,08,20,07,21,11.30
2011,08,20,07,22,11.40
2011,08,20,07,23,11.40
2011,08,20,07,24,11.40
2011,08,20,07,25,11.40
2011,08,20,07,26,11.50
2011,08,20,07,27,11.50
2011,08,20,07,28,11.60
2011,08,20,07,29,11.60
2011,08,20,07,30,11.70
2011,08,20,07,31,11.70
2011,08,20,07,32,11.80
2011,08,20,07,33,11.90
2011,08,20,07,34,12.00
2011,08,20,07,35,12.10
2011,08,20,07,36,12.20
2011,08,20,07,37,12.30
2011,08,20,07,38,12.40
2011,08,20,07,39,12.40
2011,08,20,07,40,12.50
2011,08,20,07,41,12.60
2011,08,20,07,42,12.60
2011,08,20,07,43,12.70
2011,08,20,07,44,12.80
2011,08,20,07,45,12.80
2011,08,20,07,46,12.90
2011,08,20,07,47,13.00
2011,08,20,07,48,13.10
2011,08,20,07,49,13.20
2011,08,20,07,50,13.30
2011,08,20,07,51,13.40
2011,08,20,07,52,13.50
2011,08,20,07,53,13.60
2011,08,20,07,54,13.70
2011,08,20,07,55,13.80
2011,08,20,07,56,13.90
2011,08,20,07,57,14.00
2011,08,20,07,58,14.20
2011,08,20,07,59,14.30
2011,08,20,08,00,14.40
2011,08,20,08,01,14.60
2011,08,20,08,02,14.80
2011,08,20,08,03,14.90
2011,08,20,08,04,15.10
2011,08,20,08,05,15.30
2011,08,20,08,06,15.50
2011,08,20,08,07,15.70
2011,08,20,08,08,15.90
2011,08,20,08,09,16.10
2011,08,20,08,10,16.30
2011,08,20,08,11,16.40
2011,08,20,08,12,16.50
2011,08,20,08,13,16.70
2011,08,20,08,14,16.80
2011,08,20,08,15,16.90
2011,08,20,08,16,17.10
2011,08,20,08,17,17.20
2011,08,20,08,18,17.30
2011,08,20,08,19,17.40
2011,08,20,08,20,17.60
2011,08,20,08,21,17.70
2011,08,20,08,22,17.80
2011,08,20,08,23,17.90
2011,08,20,08,24,17.90
2011,08,20,08,25,17.90
2011,08,20,08,26,18.00
2011,08,20,08,27,18.00
2011,08,20,08,28,18.00
2011,08,20,08,29,18.10
2011,08,20,08,30,18.10
2011,08,20,08,31,18.10
2011,08,20,08,32,18.10
2011,08,20,08,33,18.10
2011,08,20,08,34,18.10
2011,08,20,08,35,18.10
2011,08,20,08,36,18.20
2011,08,20,08,37,18.20
2011,08,20,08,38,18.30
2011,08,20,08,39,18.40
2011,08,20,08,40,18.40
2011,08,20,08,41,18.50
2011,08,20,08,42,18.50
2011,08,20,08,43,18.60
2011,08,20,08,44,18.70
2011,08,20,08,45,18.80
2011,08,20,08,46,18.80
2011,08,20,08,47,18.80
2011,08,20,08,48,18.90
2011,08,20,08,49,18.90
2011,08,20,08,50,19.00
2011,08,20,08,51,19.10
2011,08,20,08,52,19.10
2011,08,20,08,53,19.20
2011,08,20,08,54,19.30
2011,08,20,08,55,19.30
2011,08,20,08,56,19.40
2011,08,20,08,57,19.50
2011,08,20,08,58,19.60
2011,08,20,08,59,19.70
2011,08,20,09,00,19.70
2011,08,20,09,01,19.80
2011,08,20,09,02,19.90
2011,08,20,09,03,19.90
2011,08,20,09,04,20.00
2011,08,20,09,05,20.10
2011,08,20,09,06,20.20
2011,08,20,09,07,20.20
2011,08,20,09,08,20.30
2011,08,20,09,09,20.30
2011,08,20,09,10,20.30
2011,08,20,09,11,20.30
2011,08,20,09,12,20.30
2011,08,20,09,13,20.40
2011,08,20,09,14,20.40
2011,08,20,09,15,20.50
2011,08,20,09,16,20.50
2011,08,20,09,17,20.60
2011,08,20,09,18,20.60
2011,08,20,09,19,20.60
2011,08,20,09,20,20.50
2011,08,20,09,21,20.50
2011,08,20,09,22,20.40
2011,08,20,09,23,20.40
2011,08,20,09,24,20.50
2011,08,20,09,25,20.50
2011,08,20,09,26,20.60
2011,08,20,09,27,20.70
2011,08,20,09,28,20.70
2011,08,20,09,29,20.70
2011,08,20,09,30,20.60
2011,08,20,09,31,20.60
2011,08,20,09,32,20.60
2011,08,20,09,33,20.60
2011,08,20,09,34,20.60
2011,08,20,09,35,20.60
2011,08,20,09,36,20.60
2011,08,20,09,37,20.60
2011,08,20,09,38,20.70
2011,08,20,09,39,20.70
2011,08,20,09,40,20.80
2011,08,20,09,41,20.90
2011,08,20,09,42,20.90
2011,08,20,09,43,21.00
2011,08,20,09,44,21.00
2011,08,20,09,45,21.00
2011,08,20,09,46,21.00
2011,08,20,09,47,21.00
2011,08,20,09,48,21.00
2011,08,20,09,49,21.00
2011,08,20,09,50,21.10
2011,08,20,09,51,21.10
2011,08,20,09,52,21.20
2011,08,20,09,53,21.20
2011,08,20,09,54,21.20
2011,08,20,09,55,21.20
2011,08,20,09,56,21.30
2011,08,20,09,57,21.30
2011,08,20,09,58,21.40
2011,08,20,09,59,21.40
2011,08,20,10,00,21.40
2011,08,20,10,01,21.40
2011,08,20,10,02,21.40
2011,08,20,10,03,21.40
2011,08,20,10,04,21.40
2011,08,20,10,05,21.40
2011,08,20,10,06,21.40
2011,08,20,10,07,21.30
2011,08,20,10,08,21.30
2011,08,20,10,09,21.30
2011,08,20,10,10,21.20
2011,08,20,10,11,21.20
2011,08,20,10,12,21.20
2011,08,20,10,13,21.20
2011,08,20,10,14,21.20
2011,08,20,10,15,21.20
2011,08,20,10,16,21.20
2011,08,20,10,17,21.20
2011,08,20,10,18,21.20
2011,08,20,10,19,21.30
2011,08,20,10,20,21.30
2011,08,20,10,21,21.30
2011,08,20,10,22,21.30
2011,08,20,10,23,21.30
2011,08,20,10,24,21.30
2011,08,20,10,25,21.30
2011,08,20,10,26,21.30
2011,08,20,10,27,21.40
2011,08,20,10,28,21.40
2011,08,20,10,29,21.40
2011,08,20,10,30,21.30
2011,08,20,10,31,21.30
2011,08,20,10,32,21.30
2011,08,20,10,33,21.30
2011,08,20,10,34,21.30
2011,08,20,10,35,21.30
2011,08,20,10,36,21.30
2011,08,20,10,37,21.30
2011,08,20,10,38,21.30
2011,08,20,10,39,21.30
2011,08,20,10,40,21.30
2011,08,20,10,41,21.30
2011,08,20,10,42,21.20
2011,08,20,10,43,21.20
2011,08,20,10,44,21.20
2011,08,20,10,45,21.30
2011,08,20,10,46,21.40
2011,08,20,10,47,21.60
2011,08,20,10,48,21.70
2011,08,20,10,49,21.80
2011,08,20,10,50,21.80
2011,08,20,10,51,21.80
2011,08,20,10,52,21.90
2011,08,20,10,53,21.90
2011,08,20,10,54,22.00
2011,08,20,10,55,22.10
2011,08,20,10,56,22.10
2011,08,20,10,57,22.10
2011,08,20,10,58,22.10
2011,08,20,10,59,22.10
2011,08,20,11,00,21.90
2011,08,20,11,01,21.90
2011,08,20,11,02,21.90
2011,08,20,11,03,22.00
2011,08,20,11,04,22.10
2011,08,20,11,05,22.20
2011,08,20,11,06,22.30
2011,08,20,11,07,22.40
2011,08,20,11,08,22.40
2011,08,20,11,09,22.40
2011,08,20,11,10,22.50
2011,08,20,11,11,22.60
2011,08,20,11,12,22.60
2011,08,20,11,13,22.60
2011,08,20,11,14,22.70
2011,08,20,11,15,22.70
2011,08,20,11,16,22.70
2011,08,20,11,17,22.80
2011,08,20,11,18,22.80
2011,08,20,11,19,22.80
2011,08,20,11,20,22.70
2011,08,20,11,21,22.70
2011,08,20,11,22,22.70
2011,08,20,11,23,22.70
2011,08,20,11,24,22.80
2011,08,20,11,25,22.80
2011,08,20,11,26,22.80
2011,08,20,11,27,22.70
2011,08,20,11,28,22.60
2011,08,20,11,29,22.60
2011,08,20,11,30,22.60
2011,08,20,11,31,22.70
2011,08,20,11,32,22.80
2011,08,20,11,33,22.80
2011,08,20,11,34,22.80
2011,08,20,11,35,22.90
2011,08,20,11,36,22.90
2011,08,20,11,37,23.00
2011,08,20,11,38,23.10
2011,08,20,11,39,23.10
2011,08,20,11,40,23.10
2011,08,20,11,41,23.00
2011,08,20,11,42,23.00
2011,08,20,11,43,23.00
2011,08,20,11,44,23.00
2011,08,20,11,45,22.90
2011,08,20,11,46,22.90
2011,08,20,11,47,22.80
2011,08,20,11,48,22.80
2011,08,20,11,49,22.80
2011,08,20,11,50,22.90
2011,08,20,11,51,23.00
2011,08,20,11,52,23.00
2011,08,20,11,53,23.10
2011,08,20,11,54,23.10
2011,08,20,11,55,23.10
2011,08,20,11,56,23.20
2011,08,20,11,57,23.20
2011,08,20,11,58,23.30
2011,08,20,11,59,23.40
2011,08,20,12,00,23.40
2011,08,20,12,01,23.40
2011,08,20,12,02,23.40
2011,08,20,12,03,23.50
2011,08,20,12,04,23.60
2011,08,20,12,05,23.70
2011,08,20,12,06,23.80
2011,08,20,12,07,23.80
2011,08,20,12,08,23.80
2011,08,20,12,09,23.80
2011,08,20,12,10,23.80
2011,08,20,12,11,23.80
2011,08,20,12,12,23.70
2011,08,20,12,13,23.70
2011,08,20,12,14,23.80
2011,08,20,12,15,23.70
2011,08,20,12,16,23.70
2011,08,20,12,17,23.70
2011,08,20,12,18,23.60
2011,08,20,12,19,23.60
2011,08,20,12,20,23.60
2011,08,20,12,21,23.70
2011,08,20,12,22,23.80
2011,08,20,12,23,23.90
2011,08,20,12,24,23.90
2011,08,20,12,25,23.90
2011,08,20,12,26,24.00
2011,08,20,12,27,24.10
2011,08,20,12,28,24.00
2011,08,20,12,29,24.00
2011,08,20,12,30,23.90
2011,08,20,12,31,23.80
2011,08,20,12,32,23.80
2011,08,20,12,33,23.90
2011,08,20,12,34,24.00
2011,08,20,12,35,24.00
2011,08,20,12,36,24.10
2011,08,20,12,37,24.10
2011,08,20,12,38,24.20
2011,08,20,12,39,24.30
2011,08,20,12,40,24.30
2011,08,20,12,41,24.30
2011,08,20,12,42,24.20
2011,08,20,12,43,24.30
2011,08,20,12,44,24.30
2011,08,20,12,45,24.30
2011,08,20,12,46,24.30
2011,08,20,12,47,24.30
2011,08,20,12,48,24.40
2011,08,20,12,49,24.40
2011,08,20,12,50,24.30
2011,08,20,12,51,24.30
2011,08,20,12,52,24.40
2011,08,20,12,53,24.50
2011,08,20,12,54,24.50
2011,08,20,12,55,24.40
2011,08,20,12,56,24.40
2011,08,20,12,57,24.40
2011,08,20,12,58,24.40
2011,08,20,12,59,24.50
2011,08,20,13,00,24.60
2011,08,20,13,01,24.60
2011,08,20,13,02,24.70
2011,08,20,13,03,24.70
2011,08,20,13,04,24.70
2011,08,20,13,05,24.70
2011,08,20,13,06,24.80
2011,08,20,13,07,24.90
2011,08,20,13,08,24.90
2011,08,20,13,09,24.90
2011,08,20,13,10,25.00
2011,08,20,13,11,25.00
2011,08,20,13,12,25.00
2011,08,20,13,13,25.10
2011,08,20,13,14,25.10
2011,08,20,13,15,25.10
2011,08,20,13,16,25.20
2011,08,20,13,17,25.20
2011,08,20,13,18,25.20
2011,08,20,13,19,25.20
2011,08,20,13,20,25.10
2011,08,20,13,21,25.00
2011,08,20,13,22,25.00
2011,08,20,13,23,24.90
2011,08,20,13,24,24.90
2011,08,20,13,25,24.90
2011,08,20,13,26,25.00
2011,08,20,13,27,25.10
2011,08,20,13,28,25.20
2011,08,20,13,29,25.20
2011,08,20,13,30,25.30
2011,08,20,13,31,25.30
2011,08,20,13,32,25.40
2011,08,20,13,33,25.50
2011,08,20,13,34,25.70
2011,08,20,13,35,25.80
2011,08,20,13,36,26.00
2011,08,20,13,37,26.00
2011,08,20,13,38,25.90
2011,08,20,13,39,25.80
2011,08,20,13,40,25.50
2011,08,20,13,41,25.30
2011,08,20,13,42,25.10
2011,08,20,13,43,24.90
2011,08,20,13,44,24.80
2011,08,20,13,45,24.80
2011,08,20,13,46,24.80
2011,08,20,13,47,24.70
2011,08,20,13,48,24.70
2011,08,20,13,49,24.60
2011,08,20,13,50,24.60
2011,08,20,13,51,24.60
2011,08,20,13,52,24.60
2011,08,20,13,53,24.60
2011,08,20,13,54,24.60
2011,08,20,13,55,24.50
2011,08,20,13,56,24.50
2011,08,20,13,57,24.40
2011,08,20,13,58,24.40
2011,08,20,13,59,24.40
2011,08,20,14,00,24.50
2011,08,20,14,01,24.60
2011,08,20,14,02,24.60
2011,08,20,14,03,24.60
2011,08,20,14,04,24.60
2011,08,20,14,05,24.60
2011,08,20,14,06,24.60
2011,08,20,14,07,24.60
2011,08,20,14,08,24.60
2011,08,20,14,09,24.70
2011,08,20,14,10,24.80
2011,08,20,14,11,24.80
2011,08,20,14,12,24.80
2011,08,20,14,13,24.70
2011,08,20,14,14,24.60
2011,08,20,14,15,24.60
2011,08,20,14,16,24.60
2011,08,20,14,17,24.60
2011,08,20,14,18,24.60
2011,08,20,14,19,24.70
2011,08,20,14,20,24.70
2011,08,20,14,21,24.80
2011,08,20,14,22,24.90
2011,08,20,14,23,24.90
2011,08,20,14,24,25.00
2011,08,20,14,25,25.00
2011,08,20,14,26,25.10
2011,08,20,14,27,25.10
2011,08,20,14,28,25.10
2011,08,20,14,29,25.00
2011,08,20,14,30,24.90
2011,08,20,14,31,25.00
2011,08,20,14,32,25.00
2011,08,20,14,33,25.00
2011,08,20,14,34,25.10
2011,08,20,14,35,25.10
2011,08,20,14,36,25.20
2011,08,20,14,37,25.30
2011,08,20,14,38,25.40
2011,08,20,14,39,25.40
2011,08,20,14,40,25.40
2011,08,20,14,41,25.40
2011,08,20,14,42,25.30
2011,08,20,14,43,25.30
2011,08,20,14,44,25.30
2011,08,20,14,45,25.30
2011,08,20,14,46,25.30
2011,08,20,14,47,25.30
2011,08,20,14,48,25.40
2011,08,20,14,49,25.50
2011,08,20,14,50,25.60
2011,08,20,14,51,25.60
2011,08,20,14,52,25.60
2011,08,20,14,53,25.50
2011,08,20,14,54,25.60
2011,08,20,14,55,25.60
2011,08,20,14,56,25.70
2011,08,20,14,57,25.80
2011,08,20,14,58,25.90
2011,08,20,14,59,26.10
2011,08,20,15,00,26.20
2011,08,20,15,01,26.20
2011,08,20,15,02,26.20
2011,08,20,15,03,26.10
2011,08,20,15,04,26.10
2011,08,20,15,05,26.10
2011,08,20,15,06,26.00
2011,08,20,15,07,26.00
2011,08,20,15,08,26.00
2011,08,20,15,09,26.00
2011,08,20,15,10,26.00
2011,08,20,15,11,26.10
2011,08,20,15,12,26.10
2011,08,20,15,13,26.10
2011,08,20,15,14,26.20
2011,08,20,15,15,26.20
2011,08,20,15,16,26.30
2011,08,20,15,17,26.30
2011,08,20,15,18,26.40
2011,08,20,15,19,26.50
2011,08,20,15,20,26.50
2011,08,20,15,21,26.60
2011,08,20,15,22,26.60
2011,08,20,15,23,26.60
2011,08,20,15,24,26.50
2011,08,20,15,25,26.50
2011,08,20,15,26,26.40
2011,08,20,15,27,26.30
2011,08,20,15,28,26.30
2011,08,20,15,29,26.30
2011,08,20,15,30,26.30
2011,08,20,15,31,26.30
2011,08,20,15,32,26.20
2011,08,20,15,33,26.20
2011,08,20,15,34,26.20
2011,08,20,15,35,26.20
2011,08,20,15,36,26.20
2011,08,20,15,37,26.30
2011,08,20,15,38,26.30
2011,08,20,15,39,26.40
2011,08,20,15,40,26.50
2011,08,20,15,41,26.50
2011,08,20,15,42,26.60
2011,08,20,15,43,26.60
2011,08,20,15,44,26.70
2011,08,20,15,45,26.60
2011,08,20,15,46,26.50
2011,08,20,15,47,26.30
2011,08,20,15,48,26.10
2011,08,20,15,49,25.90
2011,08,20,15,50,25.70
2011,08,20,15,51,25.60
2011,08,20,15,52,25.60
2011,08,20,15,53,25.60
2011,08,20,15,54,25.60
2011,08,20,15,55,25.60
2011,08,20,15,56,25.60
2011,08,20,15,57,25.70
2011,08,20,15,58,25.80
2011,08,20,15,59,26.00
2011,08,20,16,00,26.10
2011,08,20,16,01,26.30
2011,08,20,16,02,26.60
2011,08,20,16,03,26.70
2011,08,20,16,04,26.90
2011,08,20,16,05,26.90
2011,08,20,16,06,27.00
2011,08,20,16,07,27.00
2011,08,20,16,08,27.10
2011,08,20,16,09,27.10
2011,08,20,16,10,27.00
2011,08,20,16,11,26.90
2011,08,20,16,12,26.90
2011,08,20,16,13,26.80
2011,08,20,16,14,26.70
2011,08,20,16,15,26.60
2011,08,20,16,16,26.60
2011,08,20,16,17,26.70
2011,08,20,16,18,26.70
2011,08,20,16,19,26.80
2011,08,20,16,20,26.80
2011,08,20,16,21,26.70
2011,08,20,16,22,26.70
2011,08,20,16,23,26.70
2011,08,20,16,24,26.60
2011,08,20,16,25,26.50
2011,08,20,16,26,26.40
2011,08,20,16,27,26.30
2011,08,20,16,28,26.30
2011,08,20,16,29,26.30
2011,08,20,16,30,26.30
2011,08,20,16,31,26.30
2011,08,20,16,32,26.30
2011,08,20,16,33,26.30
2011,08,20,16,34,26.20
2011,08,20,16,35,26.20
2011,08,20,16,36,26.20
2011,08,20,16,37,26.20
2011,08,20,16,38,26.20
2011,08,20,16,39,26.20
2011,08,20,16,40,26.30
2011,08,20,16,41,26.30
2011,08,20,16,42,26.30
2011,08,20,16,43,26.40
2011,08,20,16,44,26.40
2011,08,20,16,45,26.40
2011,08,20,16,46,26.30
2011,08,20,16,47,26.30
2011,08,20,16,48,26.30
2011,08,20,16,49,26.30
2011,08,20,16,50,26.30
2011,08,20,16,51,26.20
2011,08,20,16,52,26.20
2011,08,20,16,53,26.20
2011,08,20,16,54,26.20
2011,08,20,16,55,26.20
2011,08,20,16,56,26.20
2011,08,20,16,57,26.20
2011,08,20,16,58,26.20
2011,08,20,16,59,26.20
2011,08,20,17,00,26.20
2011,08,20,17,01,26.20
2011,08,20,17,02,26.10
2011,08,20,17,03,26.10
2011,08,20,17,04,26.10
2011,08,20,17,05,26.10
2011,08,20,17,06,26.20
2011,08,20,17,07,26.30
2011,08,20,17,08,26.40
2011,08,20,17,09,26.50
2011,08,20,17,10,26.60
2011,08,20,17,11,26.70
2011,08,20,17,12,26.80
2011,08,20,17,13,26.80
2011,08,20,17,14,26.80
2011,08,20,17,15,26.80
2011,08,20,17,16,26.80
2011,08,20,17,17,26.80
2011,08,20,17,18,26.80
2011,08,20,17,19,26.90
2011,08,20,17,20,26.90
2011,08,20,17,21,26.90
2011,08,20,17,22,26.80
2011,08,20,17,23,26.70